Regional Weather Roundup
Issued by NWS Newport/Morehead, NC

Current Version | Previous Version | Text Only | Print | Product List | Glossary On
Versions: 1 2 3 4 5 6 7 8 9 10 11 12 13 14 15 16 17 18 19 20 21 22 23 24 25 26 27 28 29 30 31 32 33 34 35 36 37 38 39 40 41 42 43 44 45 46 47 48 49 50
000
ASUS42 KMHX 221013
RWRMHX
WEATHER ROUNDUP FOR EASTERN NORTH CAROLINA
NATIONAL WEATHER SERVICE NEWPORT/MOREHEAD CITY NC
500 AM EST SUN JAN 22 2017

NOTE: "FAIR" INDICATES FEW OR NO CLOUDS BELOW 12,000 FEET
WITH NO SIGNIFICANT WEATHER AND/OR OBSTRUCTIONS TO VISIBILITY

NCZ015>017-031-032-045>047-102-103-221100-
NORTH COAST

CITY           SKY/WX    TMP DP  RH WIND       PRES   REMARKS
EDENTON        FOG       57  57 100 CALM      29.62S VSB 1/4
ELIZABETH CITY FOG       56  56 100 W6        29.61S VSB 1/4
KITTY HAWK     NOT AVBL
MANTEO         CLOUDY    58  58 100 W12       29.62R

$$

NCZ045>047-081-094-103-104-221100-
CENTRAL COAST

CITY           SKY/WX    TMP DP  RH WIND       PRES   REMARKS
FRISCO         PTCLDY    61  56  83 W12G21    29.64F HAZE

$$

NCZ095-097-098-100-101-221100-
SOUTHERN COAST

CITY           SKY/WX    TMP DP  RH WIND       PRES   REMARKS
BEAUFORT       PTCLDY    59  57  93 SW10      29.64F
CEDAR ISLAND   NOT AVBL
JACKSONVILLE   PTCLDY    60  59  96 SW8       29.64F
PINEY ISLAND   MOSUNNY  N/A N/A N/A SW7       29.64F
WILMINGTON     CLOUDY    59  58  96 SW9       29.66F


$$

NCZ011>013-027>030-043-044-078>080-089-090>093-098-221100-
COASTAL PLAIN

CITY           SKY/WX    TMP DP  RH WIND       PRES   REMARKS
AHOSKIE        DRZL/FOG  51  51  99 CALM      29.63S VSB 1/2
CLINTON        CLOUDY    61  60  96 SW10      29.65F
ELIZABETHTOWN  MOCLDY    60  58  96 SW6       29.67R
GOLDSBORO      CLOUDY    60  60 100 SW9       29.61F
GREENVILLE     CLOUDY    59  59 100 SW6       29.65F
HAVELOCK       CLEAR     59  56  89 SW6       29.64F
KENANSVILLE    CLOUDY    61  59  94 SW9       29.64F
KINSTON        CLOUDY    61  59  93 SW7       29.63F
NEW BERN       CLOUDY    59  57  93 SW5       29.64F
RICHLANDS      CLOUDY    58  57  97 SW6       29.64F
ROCKY MOUNT    CLOUDY    54  54 100 CALM      29.63F FOG
WASHINGTON     CLOUDY    58  58 100 SW5         N/A
WHITEVILLE     CLOUDY    60  57  89 SW9       29.67R

$$

AMZ130-135-150-152-154-156-158-170-250-252-270-ANZ085-086-088-633-658-670-221100-
MARINE OBSERVATIONS

STATION/POSITION TIME  TEMP    WIND        PRES    WAVE   SWELL
                       AIR SEA DIR/SP/G            HT/PER HT/PER
                 (UTC) (F)     (DEG/KT/KT) (MB)    (FT/S) (FT/S)
CHESAPEAKE LIGHT NOT AVBL
64 E VA BEACH    0950   61 58  240/  8/ 10 1001.6    5/11   5/11
DUCK             0948   60 45  240/ 12/ 14 1002.0
2 E DUCK         0930      46                N/A     3/13   2/13
OREGON INLET     0936   54 50  210/ 11/ 12 1002.8
13E OREGON INLT  NOT AVBL
HATTERAS CG      0948      55  250/ 11/ 13 1003.3
DIAMOND BUOY     0950   67 73  260/ 23/ 29 1003.4    6/ 6   3/11
CAPE LOOKOUT     0900   60     250/ 12/ 16 1004.2
BEAUFORT LAB     0948      52  230/  4/  8 1003.0
30 SE NEW RVR IN 0908   63 65  260/ 19/ 25 1004.7
30 SE NEW RVR IN 0943      65                N/A     5/ 6   2/11
27 SE WRIGHTSVLE 0908   63 68  240/ 16/ 23 1004.5
5 SE WRIGHTSVLE  0908   57     240/ 10/ 14 1004.7
225 S CAPE HAT   0950   72 71  190/ 21/ 25 1006.8    7/ 6   2/14
41 SE CHARLESTON 0850   69 68  240/ 16/ 19 1005.2    4/ 6   2/11

$$



USA.gov is the U.S. government's official web portal to all federal, state and local government web resources and services.